[[{"header":{"parameterUnit":"m.s-1","parameterCategory":1,"la1":30.2991,"la2":30.254,"lo1":-89.0895,"lo2":-89.0444,"dy":0.0017,"dx":0.0017,"nx":28,"ny":28,"refTime":"2025-04-10T21:00:00:Z","depth":0,"parameterNumber":2,"parameterNumberName":"U-component_of_WINDS"},"data":[0,0,0,0,0,0,0,0,0,0,0,0,0,0,0,0,0,0,0,0,0,0,0,0,0,0,0,0,0,0,0,0,0,0,0,0,0,0,0,0,0,0,0,0,0,0,0,0,0,0,0,0,0,0,0,0,0,0,0.2095,0.2094,0,0.2021,0.202,0.2019,0.2017,0.2018,0.2019,0.202,0.1942,0.1939,0.1936,0,0,0,0,0,0,0,0,0,0,0,0,0,0.2233,0.2231,0.2095,0.2094,0.2093,0.2021,0.202,0.2019,0.2017,0.2018,0.202,0.2021,0.1943,0.194,0.1936,0,0,0,0,0,0,0,0,0,0,0,0,0,0.2167,0.223,0.2095,0.2084,0.2082,0.2021,0.202,0.2019,0.2017,0.2018,0.202,0.2021,0.1944,0.194,0.1936,0.1881,0,0,0.1922,0.192,0,0,0,0,0,0,0,0,0.2171,0.2162,0.2086,0.2084,0.2082,0.203,0.204,0.1972,0.2017,0.2042,0.202,0.2022,0.197,0.1964,0.1947,0.1877,0.1874,0.1922,0.1919,0.1917,0.1916,0,0,0,0,0,0,0,0.2176,0.2166,0.2066,0.2085,0.2083,0.2082,0.2074,0.2027,0.1999,0.204,0.2039,0.2031,0.1969,0.1951,0.1945,0.1873,0.1922,0.1918,0.1915,0.1913,0.1754,0.1752,0,0,0,0,0,0,0.2183,0.2169,0.2068,0.2064,0.2131,0.2078,0.2069,0.2045,0.1999,0.1994,0.203,0.2031,0.1958,0.195,0.1942,0.1874,0.1917,0.1913,0.1911,0.1755,0.1753,0.1752,0,0,0,0,0,0,0.2186,0.2174,0.2071,0.2116,0.2103,0.2074,0.2047,0.2043,0.2025,0.1992,0.1987,0.2016,0.1958,0.1948,0.1896,0.1871,0.1911,0.1907,0.1757,0.1755,0.1752,0.1737,0,0,0,0,0,0,0.219,0.2175,0.2154,0.2116,0.2101,0.2027,0.2046,0.2041,0.2017,0.2018,0.1978,0.1972,0.1959,0.1903,0.1892,0.1866,0.1904,0.1759,0.1756,0.1753,0.174,0.1735,0.173,0,0,0,0,0,0.2195,0.2152,0.2153,0.2141,0.2074,0.2025,0.2016,0.2002,0.2016,0.1994,0.1973,0.1974,0.1876,0.1897,0.1885,0.1857,0.1761,0.1757,0.1753,0.1742,0.1736,0.173,0,0,0,0,0,0,0.2187,0.2147,0.2147,0.2092,0.2062,0.2025,0.1997,0.1996,0.1961,0.1964,0.1947,0.1938,0.1886,0.1867,0.1891,0.1801,0.182,0.1814,0.1815,0.1809,0.1804,0.1809,0.19,0,0,0,0,0,0.218,0.2144,0.2111,0.2064,0.205,0.2026,0.2004,0.1996,0.1964,0.1951,0.1927,0.1895,0.1857,0.1833,0.1796,0.1738,0.1728,0.1713,0.1708,0.1704,0.1698,0.1665,0.1657,0.174,0.174,0.174,0,0,0.2162,0.2136,0.2114,0.2062,0.2038,0.2001,0.2015,0.1975,0.1947,0.1945,0.1894,0.1875,0.1839,0.1783,0.1757,0.1765,0.1674,0.17,0.1697,0.1693,0.1661,0.1653,0.1646,0.1737,0.1738,0.1738,0,0,0.2111,0.2089,0.2047,0.2023,0.1987,0.1972,0.1962,0.1926,0.1913,0.1862,0.186,0.1826,0.1761,0.1735,0.1714,0.1654,0.1653,0.1643,0.1617,0.1585,0.1578,0.1572,0.1549,0.1541,0.1638,0.1637,0.1637,0,0.2094,0.2038,0.2026,0.1985,0.1962,0.1961,0.1918,0.1895,0.1848,0.1832,0.1843,0.1761,0.1737,0.1675,0.166,0.1644,0.1631,0.1646,0.158,0.1574,0.1568,0.1546,0.1538,0.1636,0.1636,0.1637,0.1637,0,0.2018,0.1979,0.195,0.1906,0.188,0.1838,0.1819,0.1794,0.1789,0.1773,0.172,0.1691,0.1648,0.1634,0.1628,0.157,0.1576,0.1584,0.1601,0.156,0.1538,0.153,0.1635,0.1635,0.1635,0.1636,0,0,0.1958,0.1909,0.1898,0.1878,0.1838,0.1807,0.1766,0.1725,0.1703,0.1672,0.1636,0.1582,0.1589,0.1564,0.1556,0.1528,0.1481,0.1538,0.1537,0.1527,0.1414,0.1407,0.1397,0.1481,0.148,0.1478,0.1416,0,0.1901,0.1828,0.1816,0.1751,0.1715,0.1713,0.1677,0.1649,0.1633,0.1599,0.1581,0.1543,0.1555,0.154,0.1513,0.1492,0.1457,0.1497,0.1446,0.1444,0.1452,0.1387,0.1379,0.1322,0.1408,0.1407,0.1406,0,0.1824,0.1791,0.1723,0.1689,0.1673,0.1641,0.1602,0.157,0.1538,0.1528,0.1501,0.1496,0.1453,0.1475,0.1414,0.1441,0.142,0.1406,0.1404,0.1396,0.1421,0.1375,0.1304,0.1294,0.1393,0.1394,0.1395,0,0.1785,0.1724,0.1675,0.1658,0.1617,0.1594,0.1576,0.1545,0.1521,0.1488,0.1472,0.1433,0.1412,0.1382,0.1366,0.1384,0.1306,0.1327,0.1295,0.1296,0.1277,0.1277,0.1198,0.1267,0.1267,0.1267,0.1268,0,0.1721,0.1679,0.1657,0.1626,0.1579,0.1566,0.1519,0.1502,0.1474,0.144,0.1437,0.1405,0.1387,0.1352,0.134,0.1291,0.1282,0.1272,0.1268,0.127,0.1271,0.1254,0.1257,0.1265,0.1266,0.1266,0.1267,0,0.1668,0.1652,0.1598,0.1564,0.1554,0.1521,0.1491,0.1461,0.1447,0.1403,0.1392,0.1368,0.1327,0.1309,0.1258,0.125,0.1193,0.1194,0.1203,0.1202,0.1171,0.1173,0.1075,0.1061,0.1142,0.1141,0.1141,0,0.1627,0.1595,0.1558,0.1535,0.1516,0.1479,0.1455,0.1442,0.1416,0.1378,0.1352,0.1311,0.1277,0.1211,0.1189,0.115,0.1148,0.1117,0.1142,0.1145,0.1145,0.1146,0.1142,0.1111,0.111,0.111,0.1109,0,0.1556,0.1549,0.1515,0.1477,0.1449,0.1418,0.1389,0.137,0.1352,0.1324,0.1282,0.1256,0.1204,0.1163,0.1123,0.1104,0.1103,0.1102,0.1092,0.1093,0.1099,0.1093,0.1188,0.1104,0.1104,0.1105,0.1105,0.1105,0.1506,0.1477,0.1446,0.1407,0.1384,0.1357,0.1327,0.1308,0.1273,0.123,0.1225,0.118,0.1149,0.1095,0.1074,0.1038,0.1046,0.1032,0.1028,0.1024,0.1021,0.1107,0.1031,0.1031,0.1031,0.1031,0.1032,0,0.1432,0.1413,0.1378,0.1337,0.1306,0.131,0.1278,0.1252,0.1212,0.1184,0.1151,0.1102,0.1062,0.1038,0.0997,0.0973,0.0972,0.0963,0.0963,0.0958,0.1018,0.1029,0.0965,0.0965,0.0965,0.0965,0.0965,0.0965,0.139,0.1341,0.1331,0.1269,0.125,0.1206,0.1187,0.1161,0.1138,0.1084,0.1052,0.1036,0.1009,0.0967,0.093,0.0924,0.0908,0.0899,0.0892,0.0948,0.0954,0.0961,0.0971,0.0896,0.0896,0.0836,0.0835,0.0835]},{"header":{"parameterUnit":"m.s-1","parameterCategory":1,"la1":30.2991,"la2":30.254,"lo1":-89.0895,"lo2":-89.0444,"dy":0.0017,"dx":0.0017,"nx":28,"ny":28,"refTime":"2025-04-10T21:00:00:Z","depth":0,"parameterNumber":3,"parameterNumberName":"V-component_of_WINDS"},"data":[0,0,0,0,0,0,0,0,0,0,0,0,0,0,0,0,0,0,0,0,0,0,0,0,0,0,0,0,0,0,0,0,0,0,0,0,0,0,0,0,0,0,0,0,0,0,0,0,0,0,0,0,0,0,0,0,0,0,-5.4129,-5.4131,0,-5.4284,-5.4285,-5.4287,-5.4217,-5.4213,-5.4209,-5.4205,-5.436,-5.4368,-5.4375,0,0,0,0,0,0,0,0,0,0,0,0,0,-5.3769,-5.3776,-5.4129,-5.4131,-5.4133,-5.4283,-5.4285,-5.4288,-5.4217,-5.4213,-5.4208,-5.4204,-5.4358,-5.4367,-5.4376,0,0,0,0,0,0,0,0,0,0,0,0,0,-5.3924,-5.3778,-5.4129,-5.4116,-5.4116,-5.4283,-5.4286,-5.4288,-5.4218,-5.4213,-5.4207,-5.4201,-5.4355,-5.4366,-5.4377,-5.4564,0,0,-5.4412,-5.4417,0,0,0,0,0,0,0,0,-5.3916,-5.3938,-5.4116,-5.4117,-5.4118,-5.4225,-5.4215,-5.438,-5.422,-5.418,-5.4205,-5.4199,-5.432,-5.4334,-5.4375,-5.4571,-5.4578,-5.4413,-5.442,-5.4425,-5.4429,0,0,0,0,0,0,0,-5.3905,-5.3931,-5.419,-5.4119,-5.412,-5.4101,-5.4117,-5.4246,-5.428,-5.4183,-5.4178,-5.4197,-5.4319,-5.4364,-5.4378,-5.458,-5.4413,-5.4423,-5.4431,-5.4435,-5.4935,-5.4942,0,0,0,0,0,0,-5.3895,-5.3922,-5.4185,-5.4195,-5.4001,-5.4113,-5.413,-5.4196,-5.4278,-5.4285,-5.4202,-5.4194,-5.4347,-5.4365,-5.4383,-5.4607,-5.4425,-5.4436,-5.4443,-5.4929,-5.4937,-5.4944,0,0,0,0,0,0,-5.3888,-5.3919,-5.4179,-5.4057,-5.4089,-5.4125,-5.42,-5.4203,-5.4248,-5.4293,-5.4298,-5.4243,-5.4343,-5.4367,-5.452,-5.4612,-5.4441,-5.4452,-5.4922,-5.4932,-5.494,-5.5056,0,0,0,0,0,0,-5.3878,-5.3917,-5.3989,-5.4059,-5.4096,-5.4314,-5.4206,-5.421,-5.4268,-5.4259,-5.4332,-5.4339,-5.4341,-5.4503,-5.4531,-5.4624,-5.4461,-5.4914,-5.4926,-5.4937,-5.5045,-5.5069,-5.509,0,0,0,0,0,-5.3865,-5.4015,-5.3993,-5.4026,-5.4187,-5.432,-5.434,-5.434,-5.4276,-5.4348,-5.4377,-5.4337,-5.4597,-5.4519,-5.455,-5.4648,-5.4908,-5.4923,-5.4936,-5.5035,-5.5064,-5.5089,0,0,0,0,0,0,-5.3954,-5.4024,-5.4001,-5.4179,-5.4244,-5.4308,-5.4399,-5.4372,-5.4455,-5.4443,-5.4438,-5.4455,-5.4613,-5.4645,-5.4558,-5.4833,-5.4742,-5.4764,-5.4806,-5.4835,-5.4857,-5.4846,-5.447,0,0,0,0,0,-5.3995,-5.4098,-5.4153,-5.4304,-5.4338,-5.4363,-5.4421,-5.4415,-5.4482,-5.4509,-5.4549,-5.4614,-5.471,-5.4774,-5.4865,-5.5048,-5.5063,-5.5131,-5.5154,-5.5172,-5.5191,-5.5289,-5.532,-5.4991,-5.4991,-5.499,0,0,-5.4079,-5.413,-5.4195,-5.4323,-5.4373,-5.4479,-5.4387,-5.4502,-5.458,-5.4526,-5.4673,-5.4704,-5.4777,-5.4945,-5.5022,-5.4978,-5.5284,-5.519,-5.5204,-5.5213,-5.5307,-5.5338,-5.5366,-5.5001,-5.4999,-5.4997,0,0,-5.4287,-5.4336,-5.4468,-5.452,-5.4597,-5.4612,-5.4644,-5.4712,-5.4731,-5.4879,-5.484,-5.4931,-5.5098,-5.5151,-5.5199,-5.5427,-5.5392,-5.5456,-5.5574,-5.567,-5.5696,-5.5719,-5.58,-5.5829,-5.5474,-5.5475,-5.5475,0,-5.4382,-5.4541,-5.4538,-5.4658,-5.4715,-5.4671,-5.4803,-5.4853,-5.4956,-5.4996,-5.4945,-5.5152,-5.5198,-5.5378,-5.5434,-5.5474,-5.5509,-5.5448,-5.5693,-5.5716,-5.5737,-5.5814,-5.5845,-5.5482,-5.5481,-5.548,-5.548,0,-5.4654,-5.4764,-5.4861,-5.4963,-5.503,-5.5155,-5.517,-5.5239,-5.5227,-5.5247,-5.5397,-5.545,-5.5551,-5.5593,-5.5582,-5.5772,-5.5742,-5.5693,-5.5601,-5.5776,-5.5848,-5.5878,-5.5492,-5.549,-5.5488,-5.5486,0,0,-5.4924,-5.5022,-5.5057,-5.5102,-5.5184,-5.5268,-5.5391,-5.5491,-5.5549,-5.5621,-5.5723,-5.5864,-5.5818,-5.5873,-5.5868,-5.5952,-5.6128,-5.5892,-5.5893,-5.5934,-5.634,-5.6378,-5.6412,-5.6106,-5.6111,-5.6116,-5.6334,0,-5.5138,-5.5354,-5.5355,-5.5553,-5.5655,-5.5614,-5.5721,-5.5781,-5.5803,-5.5891,-5.5914,-5.6015,-5.5947,-5.598,-5.6062,-5.609,-5.621,-5.6074,-5.6199,-5.6204,-5.6184,-5.645,-5.649,-5.6694,-5.6362,-5.6367,-5.637,0,-5.5417,-5.5499,-5.5708,-5.5774,-5.5817,-5.5913,-5.6004,-5.6089,-5.6156,-5.6166,-5.6228,-5.6209,-5.6332,-5.6237,-5.6405,-5.6313,-5.6364,-5.6385,-5.6393,-5.6405,-5.6298,-5.6469,-5.6759,-5.6789,-5.6415,-5.6411,-5.6408,0,-5.5593,-5.5755,-5.5902,-5.5941,-5.6022,-5.609,-5.6127,-5.6188,-5.6248,-5.6327,-5.6365,-5.6457,-5.6508,-5.6578,-5.6584,-5.6514,-5.6754,-5.6659,-5.6765,-5.6765,-5.6818,-5.6814,-5.712,-5.685,-5.6849,-5.6849,-5.6848,0,-5.5833,-5.5962,-5.5982,-5.6072,-5.6215,-5.6214,-5.6355,-5.6386,-5.6441,-5.6535,-5.6504,-5.6593,-5.6595,-5.6685,-5.669,-5.6828,-5.6851,-5.6861,-5.6861,-5.6865,-5.6864,-5.6899,-5.6885,-5.6857,-5.6855,-5.6854,-5.6852,0,-5.6054,-5.6072,-5.6229,-5.6293,-5.6311,-5.6414,-5.6468,-5.6553,-5.6571,-5.6691,-5.6718,-5.6747,-5.6852,-5.6864,-5.6986,-5.6989,-5.7156,-5.714,-5.7134,-5.7132,-5.7237,-5.7227,-5.7576,-5.7621,-5.7321,-5.7324,-5.7327,0,-5.6206,-5.6305,-5.6379,-5.6441,-5.6481,-5.6581,-5.6642,-5.6643,-5.6708,-5.6791,-5.6866,-5.6967,-5.7049,-5.7217,-5.7248,-5.734,-5.7327,-5.7442,-5.734,-5.734,-5.7329,-5.7323,-5.7333,-5.7462,-5.7466,-5.7468,-5.7471,0,-5.6474,-5.6478,-5.6568,-5.6662,-5.6736,-5.6809,-5.6877,-5.6929,-5.6939,-5.7012,-5.712,-5.7183,-5.7307,-5.7407,-5.7498,-5.7534,-5.7504,-5.7502,-5.7532,-5.7537,-5.7529,-5.7535,-5.7188,-5.7495,-5.7492,-5.749,-5.7489,-5.7488,-5.6666,-5.6752,-5.6818,-5.6919,-5.697,-5.7035,-5.7118,-5.7147,-5.7237,-5.7339,-5.7334,-5.7452,-5.7515,-5.7634,-5.7676,-5.7767,-5.7728,-5.7771,-5.7782,-5.7792,-5.7803,-5.7514,-5.7783,-5.7782,-5.7782,-5.7781,-5.7781,0,-5.6933,-5.6973,-5.7066,-5.7163,-5.7242,-5.7208,-5.7282,-5.735,-5.7455,-5.7516,-5.7597,-5.7719,-5.7817,-5.7855,-5.795,-5.8015,-5.8004,-5.804,-5.8035,-5.8044,-5.7832,-5.7797,-5.8048,-5.8048,-5.8047,-5.8047,-5.8047,-5.8047,-5.7081,-5.7225,-5.7236,-5.7405,-5.7443,-5.756,-5.7605,-5.7663,-5.7713,-5.7851,-5.7933,-5.7957,-5.8009,-5.8107,-5.8195,-5.8203,-5.8239,-5.8282,-5.8284,-5.8086,-5.8059,-5.8033,-5.8001,-5.829,-5.829,-5.8489,-5.8491,-5.8492]}]]